Location: Croissy-Beaubourg
(48.8283°N, 2.6696°E)
Time: 22:30:41
(UTC+00:00)

Cosmos 2082 - Pass Details

Date: 18 August 2022
Orbit: 832 x 856 km, 71.0° (Epoch: 28 September)

Event Time Altitude Azimuth Distance (km) Brightness Sun altitude
Rises 03:19:55 0° 331° (NNW) 3,409 7.0 -13.1°
Reaches altitude 10° 03:22:22 10° 330° (NNW) 2,474 6.2 -12.8°
Maximum altitude 03:28:03 81° 245° (WSW) 863 3.7 -12.0°
Drops below altitude 10° 03:33:45 10° 158° (SSE) 2,474 6.0 -11.3°
Sets 03:36:11 0° 157° (SSE) 3,408 6.7 -11.0°
